This is the latest recevied weather packets stored in our database for station/object NR0A-4. If no packets are shown the sender has not sent any weather packets the latest 1 day(s).
| Time | Temp. | Humidity | Pressure | Rain* | Wind** | Luminosity | Snow |
|---|---|---|---|---|---|---|---|
| 1778035205 | 12.78° C | 35% | 1012.4 hPa | 0 mm | 0.89 m/s, 297° | 0 W/m² | - |
| 1778034904 | 12.78° C | 35% | 1012.4 hPa | 0 mm | 0.89 m/s, 277° | 0 W/m² | - |
| 1778034605 | 12.78° C | 35% | 1012.4 hPa | 0 mm | 0.89 m/s, 284° | 0 W/m² | - |
| 1778034304 | 12.78° C | 35% | 1012.4 hPa | 0 mm | 0.89 m/s, 268° | 0 W/m² | - |
| 1778034004 | 12.78° C | 35% | 1012.4 hPa | 0 mm | 0.89 m/s, 274° | 0 W/m² | - |
| 1778033704 | 12.78° C | 35% | 1012.4 hPa | 0 mm | 1.34 m/s, 269° | 0 W/m² | - |
| 1778033404 | 12.78° C | 35% | 1012.4 hPa | 0 mm | 1.79 m/s, 279° | 0 W/m² | - |
| 1778033105 | 12.78° C | 35% | 1012.4 hPa | 0 mm | 1.34 m/s, 286° | 0 W/m² | - |
| 1778032804 | 12.78° C | 35% | 1012.4 hPa | 0 mm | 1.34 m/s, 273° | 0 W/m² | - |
| 1778032504 | 12.78° C | 35% | 1012.4 hPa | 0 mm | 1.34 m/s, 286° | 0 W/m² | - |
| 1778032204 | 12.78° C | 35% | 1012.4 hPa | 0 mm | 0.89 m/s, 290° | 0 W/m² | - |
| 1778031904 | 12.78° C | 35% | 1012.4 hPa | 0 mm | 0.89 m/s, 283° | 0 W/m² | - |
| 1778031604 | 12.78° C | 35% | 1012.4 hPa | 0 mm | 1.34 m/s, 298° | 0 W/m² | - |
| 1778031304 | 12.78° C | 35% | 1012.4 hPa | 0 mm | 0.89 m/s, 273° | 0 W/m² | - |
| 1778031004 | 12.78° C | 35% | 1012.4 hPa | 0 mm | 0.45 m/s, 278° | 0 W/m² | - |
| 1778030704 | 12.78° C | 35% | 1012.4 hPa | 0 mm | 1.34 m/s, 270° | 0 W/m² | - |
| 1778030404 | 12.78° C | 35% | 1012.4 hPa | 0 mm | 1.34 m/s, 274° | 0 W/m² | - |
| 1778030104 | 12.78° C | 35% | 1012.4 hPa | 0 mm | 1.34 m/s, 278° | 0 W/m² | - |
| 1778029804 | 12.78° C | 35% | 1012.4 hPa | 0 mm | 0.89 m/s, 269° | 0 W/m² | - |
| 1778029504 | 12.78° C | 35% | 1012.4 hPa | 0 mm | 0.89 m/s, 281° | 0 W/m² | - |
| 1778029204 | 12.78° C | 35% | 1012.4 hPa | 0 mm | 1.34 m/s, 273° | 0 W/m² | - |
| 1778028904 | 12.78° C | 35% | 1012.4 hPa | 0 mm | 1.34 m/s, 273° | 0 W/m² | - |
| 1778028605 | 12.78° C | 35% | 1012.4 hPa | 0 mm | 1.79 m/s, 276° | 0 W/m² | - |
| 1778028304 | 12.78° C | 35% | 1012.4 hPa | 0 mm | 1.34 m/s, 281° | 0 W/m² | - |
| 1778028004 | 12.78° C | 35% | 1012.4 hPa | 0 mm | 1.79 m/s, 269° | 0 W/m² | - |
* Rain latest hour (hover to see other rain measurements)
** Current wind speed in m/s (hover to see current wind gust speed)